Flag for U.S.A. Weather past 2 weeks in Honolulu, Hawaii, U.S.A.

Now
76 °F

Passing clouds.


Feels Like: 77 °F
Forecast: 71 / 85 °F
Wind: No wind

Location: Honolulu International Airport

Current Time: Jun 30, 2015 at 3:48:25 AM

Latest Report: Jun 30, 2015 at 2:53 AM


Visibility: 10 mi

Pressure: 29.95 "Hg

Humidity: 82%

Dew point: 70 °F

Location of HonoluluLocation

Historic Weather in Honolulu — Graph

°F

Honolulu temperature yesterday

Maximum temperature yesterday: 86 °F (at 1:53 PM)
Minimum temperature yesterday: 73 °F (at 5:53 AM)
Average temperature yesterday: 80 °F

Past Weeks' High & Low Weather Summary

 TemperatureHumidityPressure
High89 °F (Jun 22, 1:53 PM)94% (Jun 28, 11:53 PM)30.06 "Hg (Jun 28, 11:53 PM)
Low73 °F (Jun 29, 5:53 AM)43% (Jun 16, 11:53 AM)29.90 "Hg (Jun 15, 4:53 PM)
Average80 °F65%29.99 "Hg
* Reported Jun 15 1:53 AM — Jun 30 1:53 AM, Honolulu, Weather by CustomWeather, © 2015

Note: Actual official high and low records may vary slightly from our data, if they occured in-between our weather recording intervals... More about our weather records

Advertising

Honolulu weather history for previous 24 hours

 ConditionsComfort  
Time TempWeatherWind HumidityBarometerVisibility
1:53 AM
Tue, Jun 30
77 °FPassing clouds.3 mph79%29.97 "Hg10 mi
12:53 AM77 °FPassing clouds.5 mph79%29.98 "Hg10 mi
11:53 PM
Mon, Jun 29
78 °FPassing clouds.3 mph79%30.00 "Hg10 mi
10:53 PM79 °FPassing clouds.No wind77%30.01 "Hg10 mi
9:53 PM80 °FPassing clouds.No wind76%29.99 "Hg10 mi
8:53 PM80 °FPassing clouds.6 mph79%29.97 "Hg10 mi
7:53 PM81 °FPartly cloudy.5 mph74%29.96 "Hg10 mi
6:53 PM82 °FScattered clouds.6 mph70%29.93 "Hg10 mi
5:53 PM83 °FScattered clouds.6 mph68%29.92 "Hg10 mi
4:53 PM84 °FScattered clouds.8 mph67%29.91 "Hg10 mi
3:53 PM84 °FScattered clouds.8 mph67%29.92 "Hg10 mi
2:53 PM86 °FScattered clouds.10 mph61%29.93 "Hg10 mi
1:53 PM86 °FScattered clouds.12 mph61%29.94 "Hg10 mi
12:53 PM85 °FScattered clouds.9 mph63%29.95 "Hg10 mi
11:53 AM85 °FScattered clouds.12 mph63%29.96 "Hg10 mi
10:53 AM84 °FScattered clouds.12 mph65%29.96 "Hg10 mi
9:53 AM85 °FScattered clouds.8 mph59%29.97 "Hg10 mi
8:53 AM83 °FScattered clouds.6 mph63%29.97 "Hg10 mi
7:53 AM80 °FScattered clouds.No wind74%29.97 "Hg10 mi
6:53 AM76 °FScattered clouds.5 mph88%29.97 "Hg10 mi
5:53 AM73 °FScattered clouds.No wind94%29.96 "Hg10 mi
4:53 AM74 °FPassing clouds.3 mph91%29.95 "Hg10 mi
3:53 AM75 °FPassing clouds.No wind90%29.95 "Hg10 mi
Weather by CustomWeather, © 2015

See weather overviewHow to use our weather pages